Time,TemperatureF,DewpointF,PressureIn,WindDirection,WindDirectionDegrees,WindSpeedMPH,WindSpeedGustMPH,Humidity,HourlyPrecipIn,Conditions,Clouds,dailyrainin,SoftwareType,DateUTC
2013-08-10 00:04:00,68.3,63.0,29.95,West,268,0.0,-999.0,82,-99.99,,,0.00,weatherlink.com 1.10,2013-08-10 04:04:00,
2013-08-10 00:19:00,67.6,62.0,29.95,West,268,0.0,-999.0,82,-99.99,,,0.00,weatherlink.com 1.10,2013-08-10 04:19:00,
2013-08-10 00:34:00,67.3,62.0,29.96,West,281,0.0,-999.0,83,-99.99,,,0.00,weatherlink.com 1.10,2013-08-10 04:34:00,
2013-08-10 00:49:00,67.0,62.0,29.96,WNW,284,0.0,-999.0,84,-99.99,,,0.00,weatherlink.com 1.10,2013-08-10 04:49:00,
2013-08-10 01:04:00,66.7,62.0,29.96,WNW,285,0.0,-999.0,85,-99.99,,,0.00,weatherlink.com 1.10,2013-08-10 05:04:00,
2013-08-10 01:19:00,66.4,62.0,29.97,WNW,285,0.0,-999.0,86,-99.99,,,0.00,weatherlink.com 1.10,2013-08-10 05:19:00,
2013-08-10 01:34:00,66.1,62.0,29.98,North,5,0.0,-999.0,86,-99.99,,,0.00,weatherlink.com 1.10,2013-08-10 05:34:00,
2013-08-10 01:49:00,65.6,62.0,29.98,ENE,63,0.0,-999.0,87,-99.99,,,0.00,weatherlink.com 1.10,2013-08-10 05:49:00,
2013-08-10 02:04:00,65.2,61.0,29.98,ENE,63,0.0,-999.0,87,-99.99,,,0.00,weatherlink.com 1.10,2013-08-10 06:04:00,
2013-08-10 02:19:00,64.8,61.0,29.99,ENE,63,0.0,-999.0,88,-99.99,,,0.00,weatherlink.com 1.10,2013-08-10 06:19:00,
2013-08-10 02:34:00,64.3,61.0,29.99,ENE,63,0.0,-999.0,88,-99.99,,,0.00,weatherlink.com 1.10,2013-08-10 06:34:00,
2013-08-10 02:49:00,63.8,61.0,29.99,ENE,63,0.0,-999.0,89,-99.99,,,0.00,weatherlink.com 1.10,2013-08-10 06:49:00,
2013-08-10 03:04:00,63.4,61.0,29.99,ENE,63,0.0,-999.0,90,-99.99,,,0.00,weatherlink.com 1.10,2013-08-10 07:04:00,
2013-08-10 03:19:00,63.0,60.0,29.99,ENE,63,0.0,-999.0,90,-99.99,,,0.00,weatherlink.com 1.10,2013-08-10 07:19:00,
2013-08-10 03:34:00,63.1,60.0,30.00,ENE,63,0.0,-999.0,90,-99.99,,,0.00,weatherlink.com 1.10,2013-08-10 07:34:00,
2013-08-10 03:49:00,62.9,60.0,30.00,ENE,63,0.0,-999.0,89,-99.99,,,0.00,weatherlink.com 1.10,2013-08-10 07:49:00,
2013-08-10 04:04:00,62.6,60.0,30.00,ENE,63,0.0,-999.0,90,-99.99,,,0.00,weatherlink.com 1.10,2013-08-10 08:04:00,
2013-08-10 04:19:00,62.2,60.0,30.00,ENE,63,0.0,-999.0,91,-99.99,,,0.00,weatherlink.com 1.10,2013-08-10 08:19:00,
2013-08-10 04:34:00,61.8,60.0,30.00,ENE,63,0.0,-999.0,92,-99.99,,,0.00,weatherlink.com 1.10,2013-08-10 08:34:00,
2013-08-10 04:49:00,61.4,59.0,30.00,ENE,63,0.0,-999.0,92,-99.99,,,0.00,weatherlink.com 1.10,2013-08-10 08:49:00,
2013-08-10 05:04:00,60.9,59.0,30.00,ENE,63,0.0,-999.0,92,-99.99,,,0.00,weatherlink.com 1.10,2013-08-10 09:04:00,
2013-08-10 05:19:00,60.4,58.0,30.00,ENE,63,0.0,-999.0,93,-99.99,,,0.00,weatherlink.com 1.10,2013-08-10 09:19:00,
2013-08-10 05:34:00,60.2,58.0,30.01,ENE,63,0.0,-999.0,93,-99.99,,,0.00,weatherlink.com 1.10,2013-08-10 09:34:00,
2013-08-10 05:50:00,59.9,58.0,30.01,ENE,63,0.0,-999.0,94,-99.99,,,0.00,weatherlink.com 1.10,2013-08-10 09:50:00,
2013-08-10 06:05:00,59.6,58.0,30.01,ENE,63,0.0,-999.0,94,-99.99,,,0.00,weatherlink.com 1.10,2013-08-10 10:05:00,
2013-08-10 06:20:00,59.4,58.0,30.01,ENE,63,0.0,-999.0,94,-99.99,,,0.00,weatherlink.com 1.10,2013-08-10 10:20:00,
2013-08-10 06:35:00,59.4,58.0,30.02,ENE,63,0.0,-999.0,95,-99.99,,,0.00,weatherlink.com 1.10,2013-08-10 10:35:00,
2013-08-10 06:50:00,59.2,58.0,30.03,ENE,63,0.0,-999.0,95,-99.99,,,0.00,weatherlink.com 1.10,2013-08-10 10:50:00,
2013-08-10 07:05:00,59.3,58.0,30.03,ENE,63,0.0,-999.0,95,-99.99,,,0.00,weatherlink.com 1.10,2013-08-10 11:05:00,
2013-08-10 07:20:00,59.5,58.0,30.03,ENE,63,0.0,-999.0,95,-99.99,,,0.00,weatherlink.com 1.10,2013-08-10 11:20:00,
2013-08-10 07:35:00,60.0,59.0,30.03,ENE,63,0.0,-999.0,95,-99.99,,,0.00,weatherlink.com 1.10,2013-08-10 11:35:00,
2013-08-10 07:50:00,60.8,59.0,30.04,ENE,63,0.0,-999.0,95,-99.99,,,0.00,weatherlink.com 1.10,2013-08-10 11:50:00,
2013-08-10 08:05:00,61.7,60.0,30.04,SE,132,0.0,-999.0,94,-99.99,,,0.00,weatherlink.com 1.10,2013-08-10 12:05:00,
2013-08-10 08:20:00,62.9,60.0,30.04,SE,135,0.0,-999.0,91,-99.99,,,0.00,weatherlink.com 1.10,2013-08-10 12:20:00,
2013-08-10 08:35:00,64.0,61.0,30.04,ESE,113,0.0,-999.0,89,-99.99,,,0.00,weatherlink.com 1.10,2013-08-10 12:35:00,
2013-08-10 08:50:00,65.3,62.0,30.04,SSE,149,0.0,-999.0,88,-99.99,,,0.00,weatherlink.com 1.10,2013-08-10 12:50:00,
2013-08-10 09:05:00,65.7,62.0,30.04,SE,146,2.0,-999.0,86,-99.99,,,0.00,weatherlink.com 1.10,2013-08-10 13:05:00,
2013-08-10 09:20:00,66.4,62.0,30.04,ESE,114,2.0,-999.0,84,-99.99,,,0.00,weatherlink.com 1.10,2013-08-10 13:20:00,
2013-08-10 09:35:00,67.5,63.0,30.05,South,171,0.0,-999.0,84,-99.99,,,0.00,weatherlink.com 1.10,2013-08-10 13:35:00,
2013-08-10 09:50:00,67.9,62.0,30.05,ENE,76,0.0,-999.0,82,-99.99,,,0.00,weatherlink.com 1.10,2013-08-10 13:50:00,
2013-08-10 10:05:00,68.8,62.0,30.05,South,169,1.0,-999.0,80,-99.99,,,0.00,weatherlink.com 1.10,2013-08-10 14:05:00,
2013-08-10 10:20:00,68.7,62.0,30.05,SSE,150,0.0,-999.0,79,-99.99,,,0.00,weatherlink.com 1.10,2013-08-10 14:20:00,
2013-08-10 10:35:00,68.4,62.0,30.05,ESE,115,0.0,-999.0,79,-99.99,,,0.00,weatherlink.com 1.10,2013-08-10 14:35:00,
2013-08-10 10:50:00,68.4,61.0,30.05,ESE,120,0.0,-999.0,76,-99.99,,,0.00,weatherlink.com 1.10,2013-08-10 14:50:00,
2013-08-10 11:05:00,68.7,61.0,30.06,SSE,148,1.0,-999.0,77,-99.99,,,0.00,weatherlink.com 1.10,2013-08-10 15:05:00,
2013-08-10 11:20:00,68.5,61.0,30.06,South,171,0.0,-999.0,77,-99.99,,,0.00,weatherlink.com 1.10,2013-08-10 15:20:00,
2013-08-10 11:35:00,69.2,62.0,30.07,ESE,107,2.0,-999.0,79,-99.99,,,0.00,weatherlink.com 1.10,2013-08-10 15:35:00,
2013-08-10 11:50:00,69.2,61.0,30.07,SSW,210,0.0,-999.0,76,-99.99,,,0.00,weatherlink.com 1.10,2013-08-10 15:50:00,
2013-08-10 12:05:00,69.4,61.0,30.07,WSW,242,3.0,-999.0,75,-99.99,,,0.00,weatherlink.com 1.10,2013-08-10 16:05:00,
2013-08-10 12:20:00,69.8,62.0,30.07,SW,236,0.0,-999.0,75,-99.99,,,0.00,weatherlink.com 1.10,2013-08-10 16:20:00,
2013-08-10 12:35:00,71.1,61.0,30.07,SSE,162,0.0,-999.0,70,-99.99,,,0.00,weatherlink.com 1.10,2013-08-10 16:35:00,
2013-08-10 12:50:00,72.4,61.0,30.07,SW,220,0.0,-999.0,67,-99.99,,,0.00,weatherlink.com 1.10,2013-08-10 16:50:00,
2013-08-10 13:05:00,73.3,62.0,30.07,WSW,257,0.0,-999.0,67,-99.99,,,0.00,weatherlink.com 1.10,2013-08-10 17:05:00,
2013-08-10 13:20:00,73.5,62.0,30.06,WSW,254,0.0,-999.0,67,-99.99,,,0.00,weatherlink.com 1.10,2013-08-10 17:20:00,
2013-08-10 13:35:00,73.7,60.0,30.06,East,92,0.0,-999.0,63,-99.99,,,0.00,weatherlink.com 1.10,2013-08-10 17:35:00,
2013-08-10 13:50:00,73.8,59.0,30.06,West,259,0.0,-999.0,61,-99.99,,,0.00,weatherlink.com 1.10,2013-08-10 17:50:00,
2013-08-10 14:05:00,75.2,60.0,30.05,South,190,0.0,-999.0,60,-99.99,,,0.00,weatherlink.com 1.10,2013-08-10 18:05:00,
2013-08-10 14:20:00,74.7,60.0,30.06,ENE,67,3.0,-999.0,60,-99.99,,,0.00,weatherlink.com 1.10,2013-08-10 18:20:00,
2013-08-10 14:35:00,73.8,59.0,30.05,SW,236,0.0,-999.0,60,-99.99,,,0.00,weatherlink.com 1.10,2013-08-10 18:35:00,
2013-08-10 14:50:00,74.3,62.0,30.05,NW,312,0.0,-999.0,66,-99.99,,,0.00,weatherlink.com 1.10,2013-08-10 18:50:00,
2013-08-10 15:05:00,74.0,59.0,30.05,SE,137,0.0,-999.0,59,-99.99,,,0.00,weatherlink.com 1.10,2013-08-10 19:05:00,
2013-08-10 15:20:00,74.1,61.0,30.05,WNW,294,0.0,-999.0,64,-99.99,,,0.00,weatherlink.com 1.10,2013-08-10 19:20:00,
2013-08-10 15:35:00,74.9,59.0,30.05,East,87,1.0,-999.0,59,-99.99,,,0.00,weatherlink.com 1.10,2013-08-10 19:35:00,
2013-08-10 15:50:00,74.3,59.0,30.05,East,98,0.0,-999.0,59,-99.99,,,0.00,weatherlink.com 1.10,2013-08-10 19:50:00,
2013-08-10 16:05:00,75.1,61.0,30.04,SE,142,6.0,-999.0,61,-99.99,,,0.00,weatherlink.com 1.10,2013-08-10 20:05:00,
2013-08-10 16:20:00,74.0,58.0,30.04,ESE,115,2.0,-999.0,57,-99.99,,,0.00,weatherlink.com 1.10,2013-08-10 20:20:00,
2013-08-10 16:35:00,75.0,61.0,30.03,ENE,67,0.0,-999.0,61,-99.99,,,0.00,weatherlink.com 1.10,2013-08-10 20:35:00,
2013-08-10 16:50:00,74.1,60.0,30.04,ESE,123,0.0,-999.0,61,-99.99,,,0.00,weatherlink.com 1.10,2013-08-10 20:50:00,
2013-08-10 17:05:00,73.6,58.0,30.04,ESE,117,2.0,-999.0,59,-99.99,,,0.00,weatherlink.com 1.10,2013-08-10 21:05:00,
2013-08-10 17:21:00,73.9,60.0,30.03,NE,53,0.0,-999.0,63,-99.99,,,0.00,weatherlink.com 1.10,2013-08-10 21:21:00,
2013-08-10 17:35:00,75.4,59.0,30.03,SE,138,0.0,-999.0,58,-99.99,,,0.00,weatherlink.com 1.10,2013-08-10 21:35:00,
2013-08-10 17:51:00,76.6,60.0,30.03,SE,136,5.0,-999.0,56,-99.99,,,0.00,weatherlink.com 1.10,2013-08-10 21:51:00,
2013-08-10 18:06:00,75.8,59.0,30.03,SSE,149,0.0,-999.0,57,-99.99,,,0.00,weatherlink.com 1.10,2013-08-10 22:06:00,
2013-08-10 18:21:00,76.6,60.0,30.03,North,355,0.0,-999.0,56,-99.99,,,0.00,weatherlink.com 1.10,2013-08-10 22:21:00,
2013-08-10 18:36:00,76.4,59.0,30.02,ESE,106,0.0,-999.0,56,-99.99,,,0.00,weatherlink.com 1.10,2013-08-10 22:36:00,
2013-08-10 18:51:00,76.4,58.0,30.02,ENE,57,1.0,-999.0,54,-99.99,,,0.00,weatherlink.com 1.10,2013-08-10 22:51:00,
2013-08-10 19:06:00,75.4,57.0,30.02,ENE,71,0.0,-999.0,54,-99.99,,,0.00,weatherlink.com 1.10,2013-08-10 23:06:00,
2013-08-10 19:21:00,75.6,59.0,30.02,ENE,78,0.0,-999.0,56,-99.99,,,0.00,weatherlink.com 1.10,2013-08-10 23:21:00,
2013-08-10 19:36:00,75.2,58.0,30.02,ENE,78,0.0,-999.0,56,-99.99,,,0.00,weatherlink.com 1.10,2013-08-10 23:36:00,
2013-08-10 19:51:00,74.5,59.0,30.02,ENE,78,0.0,-999.0,59,-99.99,,,0.00,weatherlink.com 1.10,2013-08-10 23:51:00,
2013-08-10 20:06:00,73.0,59.0,30.02,ENE,78,0.0,-999.0,62,-99.99,,,0.00,weatherlink.com 1.10,2013-08-11 00:06:00,
2013-08-10 20:21:00,71.3,59.0,30.02,ENE,78,0.0,-999.0,65,-99.99,,,0.00,weatherlink.com 1.10,2013-08-11 00:21:00,
2013-08-10 20:36:00,69.9,59.0,30.02,ENE,78,0.0,-999.0,68,-99.99,,,0.00,weatherlink.com 1.10,2013-08-11 00:36:00,
2013-08-10 20:51:00,68.6,59.0,30.02,ENE,78,0.0,-999.0,71,-99.99,,,0.00,weatherlink.com 1.10,2013-08-11 00:51:00,
2013-08-10 21:06:00,67.2,59.0,30.03,ENE,78,0.0,-999.0,76,-99.99,,,0.00,weatherlink.com 1.10,2013-08-11 01:06:00,
2013-08-10 21:21:00,65.8,59.0,30.03,ENE,78,0.0,-999.0,79,-99.99,,,0.00,weatherlink.com 1.10,2013-08-11 01:21:00,
2013-08-10 21:36:00,64.9,59.0,30.04,ENE,78,0.0,-999.0,81,-99.99,,,0.00,weatherlink.com 1.10,2013-08-11 01:36:00,
2013-08-10 21:51:00,64.2,59.0,30.04,ENE,78,0.0,-999.0,83,-99.99,,,0.00,weatherlink.com 1.10,2013-08-11 01:51:00,
2013-08-10 22:06:00,63.4,59.0,30.05,ENE,78,0.0,-999.0,85,-99.99,,,0.00,weatherlink.com 1.10,2013-08-11 02:06:00,
2013-08-10 22:21:00,62.9,58.0,30.05,ENE,78,0.0,-999.0,85,-99.99,,,0.00,weatherlink.com 1.10,2013-08-11 02:21:00,
2013-08-10 22:36:00,62.3,58.0,30.06,ENE,60,0.0,-999.0,87,-99.99,,,0.00,weatherlink.com 1.10,2013-08-11 02:36:00,
2013-08-10 22:51:00,62.4,58.0,30.06,East,79,0.0,-999.0,86,-99.99,,,0.00,weatherlink.com 1.10,2013-08-11 02:51:00,
2013-08-10 23:06:00,62.5,58.0,30.06,East,79,0.0,-999.0,86,-99.99,,,0.00,weatherlink.com 1.10,2013-08-11 03:06:00,
2013-08-10 23:21:00,62.9,59.0,30.06,ESE,118,2.0,-999.0,86,-99.99,,,0.00,weatherlink.com 1.10,2013-08-11 03:21:00,
2013-08-10 23:51:00,63.4,59.0,30.06,SSE,155,2.0,-999.0,85,-99.99,,,0.00,weatherlink.com 1.10,2013-08-11 03:51:00,